Regional Weather Roundup
Issued by NWS

Home | Current Version | Previous Version | Graphics & Text | Print | Product List | Glossary On
Versions: 1 2 3 4 5 6 7 8 9 10 11 12 13 14 15 16 17 18 19 20 21 22 23 24 25 26 27 28 29 30 31 32 33 34 35 36 37 38 39 40 41 42 43 44 45 46 47 48 49 50
000
ASUS45 KBOU 160210
RWRCO

WEATHER ROUNDUP FOR COLORADO
NATIONAL WEATHER SERVICE DENVER/BOULDER CO
700 PM MST MON JAN 15 2018

NOTE: "FAIR" INDICATES FEW OR NO CLOUDS BELOW 12000 FEET WITH NO
SIGNIFICANT WEATHER AND/OR OBSTRUCTIONS TO VISIBILITY.

COZ001>005-013-030-031-160300-
...NORTHWEST COLORADO...

CITY           SKY/WX    TMP DP  RH WIND       PRES   REMARKS
CRAIG          FAIR      24  -1  33 W3        30.40R
HAYDEN         FAIR      19   4  51 SW8       30.40R WCI   9
MEEKER         FAIR      25  12  58 N8        30.38R WCI  16
RABBIT EARS PA FLURRIES N/A N/A N/A W5        30.28S
STEAMBOAT SPGS FAIR      18  11  73 CALM      30.37R
WALDEN         FAIR       9  -8  47 N8        30.37R WCI  -4
$$

COZ006>008-011-160300-
...WEST CENTRAL VALLEYS...

CITY           SKY/WX    TMP DP  RH WIND       PRES   REMARKS
GRAND JUNCTION FAIR      38  21  50 NW6       30.32R
MONTROSE       FAIR      34  21  59 SE3       30.32R
EAGLE          MOCLDY    29  13  51 E5        30.37R WCI  24
RIFLE          FAIR      36  18  48 W10G23    30.35R
DELTA          FAIR      35  22  59 CALM      30.30R
NUCLA          FAIR      39  19  45 CALM      30.31R
$$

COZ017>023-064>068-160300-
...SOUTHWEST COLORADO...

CITY           SKY/WX    TMP DP  RH WIND       PRES   REMARKS
DURANGO        FAIR      33  22  63 N6        30.18R WCI  28
CORTEZ         FAIR      37  25  61 CALM      30.21R
PAGOSA SPRINGS FAIR      28  20  70 CALM      30.21R
TELLURIDE      FAIR      28  19  69 W5        30.29R WCI  23
WOLF CREEK PAS FAIR      19  14  79 W5        30.31R WCI  13
$$

COZ009-010-012-014-032>034-037-058>063-160300-
...CENTRAL COLORADO...

CITY           SKY/WX    TMP DP  RH WIND       PRES   REMARKS
ASPEN          FAIR      26  17  68 S3        30.28R
BUENA VISTA    MOCLDY    16  13  87 SE13      30.33R WCI   2
COPPER MTN     NOT AVBL
BERTHOUD PASS  FAIR       0 -11  60 NW25G35   30.19R WCI -25
COTTONWOOD PAS NOT AVBL
GUNNISON       FAIR      27  19  72 SW3       30.26R
KREMMLING      NOT AVBL
LEADVILLE      FAIR      15   5  64 N10       30.26R WCI   2
MONARCH PASS   FAIR      16  12  86 W18       30.34R WCI  -1
SALIDA         CLOUDY    18  12  77 SE13G23   30.42R WCI   4
SUNLIGHT       CLOUDY    18  14  86 CALM      30.34R
WILKERSON PASS FAIR      10   5  79 NW14G26   30.24S WCI  -5
$$

COZ069>075-160300-
...SAN LUIS VALLEY/SANGRE DE CRISTO MOUNTAINS...

CITY           SKY/WX    TMP DP  RH WIND       PRES   REMARKS
ALAMOSA        FAIR      20   9  62 E12       30.19R WCI   8
DEL NORTE      FAIR      29   2  32 CALM      30.19R
LA VETA PASS   LGT SNOW   3   0  85 NE12        N/A  WCI -13
SAGUACHE       FAIR      32  14  47 NW14      30.21R WCI  22
$$

COZ035-036-038>040-160300-
...NORTHERN COLORADO FRONT RANGE...

CITY           SKY/WX    TMP DP  RH WIND       PRES   REMARKS
DENVER INTL AP FAIR       6  -4  63 E7        30.49R WCI  -6
DMNS CITY PARK NOT AVBL
AURORA         MOCLDY     8   0  71 E8        30.49R WCI  -5
FRONT RANGE AP PTCLDY     9  -2  61 E6        30.50R WCI  -1
ERIE MUNI ARPT MOCLDY    14   5  67 E5        30.57R WCI   6
BOULDER MUN AP CLOUDY    19  12  73 CALM      30.50R
CENTENNIAL     CLOUDY    14   5  67 SE5       30.47R WCI   6
BROOMFIELD     CLOUDY    16   7  67 E8        30.48R WCI   5
FORT COLLINS   FAIR       8   0  69 S10       30.52R WCI  -6
LONGMONT       MOCLDY    17   4  56 SE5       30.54R WCI  10
$$

COZ041-046-047-076>085-087-088-160300-
...PIKES PEAK/PALMER DIVIDE AND SOUTHERN FOOTHILLS...

CITY           SKY/WX    TMP DP  RH WIND       PRES   REMARKS
COLO. SPRINGS  CLOUDY    17  12  80 S7        30.45R WCI   8
A. F. ACADEMY  MOCLDY    10   4  75 NE5       30.42R WCI   2
SCHRIEVER AFB  MOCLDY    12   4  71 N7        30.45R WCI   1
CHEYENNE MTN   FLURRIES  13  12  93 CALM      30.34S
ELLICOTT         N/A    N/A N/A N/A NE6         N/A
FALCON         FAIR       8   3  80 NW3       30.42R
FORT CARSON    CLOUDY    17  11  80 S13       30.45R WCI   3
LIMON          FAIR       3  -4  72 N5        30.49R WCI  -6
MONUMENT HILL  FAIR       3   0  85 CALM      30.41R
CANON CITY     FLURRIES  21  19  93 NE3       30.48S
WALSENBURG     CLOUDY    18  14  86 CALM      30.46S
TRINIDAD       CLOUDY    15  10  80 NW3       30.49R
$$

COZ042>045-048>051-090-091-160300-
...NORTHEAST COLORADO...

CITY           SKY/WX    TMP DP  RH WIND       PRES   REMARKS
GREELEY ARPT   FAIR       7  -2  66 SE8       30.55R WCI  -6
AKRON          FAIR      -1  -6  79 NE9       30.53R WCI -16
BURLINGTON     FAIR       6  -2  69 N7        30.56R WCI  -6
WRAY           FAIR       5  -2  72 N9        30.62R WCI  -9
YUMA           FAIR       1  -4  78 N8        30.58R WCI -12
STERLING       FAIR       9   1  72 NE8       30.58R WCI  -4
HOLYOKE        FAIR       5  -4  66 N13       30.62R WCI -12
FORT MORGAN    FAIR       7  -7  54 CALM      30.56R
$$

COZ086-089-092>099-160300-
...SOUTHEAST COLORADO...

CITY           SKY/WX    TMP DP  RH WIND       PRES   REMARKS
PUEBLO         CLOUDY    21  14  74 S3        30.53R
LA JUNTA       CLOUDY    23  -1  35 N12       30.56R WCI  12
LAMAR          MOCLDY    17   0  47 NE22      30.56R WCI   0
SPRINGFIELD      N/A     18   4  54 NE9       30.53R WCI   7
$$



USA.gov is the U.S. government's official web portal to all federal, state and local government web resources and services.